TimeCST,TemperatureF,Dew PointF,Humidity,Sea Level PressureIn,VisibilityMPH,Wind Direction,Wind SpeedMPH,Gust SpeedMPH,PrecipitationIn,Events,Conditions,WindDirDegrees,DateUTC
12:15 AM,28.4,26.6,93,30.23,7.0,Calm,Calm,-,N/A,,Overcast,0,2013-01-15 06:15:00
12:35 AM,28.4,26.6,93,30.23,7.0,Calm,Calm,-,N/A,,Overcast,0,2013-01-15 06:35:00
12:55 AM,26.6,24.8,93,30.23,8.0,Calm,Calm,-,N/A,,Overcast,0,2013-01-15 06:55:00
1:15 AM,26.6,24.8,93,30.23,8.0,Calm,Calm,-,N/A,,Overcast,0,2013-01-15 07:15:00
1:35 AM,26.6,24.8,93,30.22,8.0,Calm,Calm,-,N/A,,Overcast,0,2013-01-15 07:35:00
1:55 AM,26.6,24.8,93,30.22,7.0,Calm,Calm,-,N/A,,Overcast,0,2013-01-15 07:55:00
2:15 AM,26.6,24.8,93,30.22,7.0,Calm,Calm,-,N/A,,Overcast,0,2013-01-15 08:15:00
2:35 AM,26.6,24.8,93,30.21,7.0,Calm,Calm,-,N/A,,Overcast,0,2013-01-15 08:35:00
2:55 AM,26.6,24.8,93,30.22,7.0,Calm,Calm,-,N/A,,Overcast,0,2013-01-15 08:55:00
3:15 AM,26.6,24.8,93,30.21,7.0,Calm,Calm,-,N/A,,Overcast,0,2013-01-15 09:15:00
3:35 AM,26.6,24.8,93,30.21,7.0,Calm,Calm,-,N/A,,Overcast,0,2013-01-15 09:35:00
3:55 AM,26.6,24.8,93,30.20,7.0,Calm,Calm,-,N/A,,Overcast,0,2013-01-15 09:55:00
4:15 AM,26.6,24.8,93,30.20,7.0,Calm,Calm,-,N/A,,Overcast,0,2013-01-15 10:15:00
4:35 AM,26.6,24.8,93,30.19,7.0,Calm,Calm,-,N/A,,Overcast,0,2013-01-15 10:35:00
4:55 AM,26.6,24.8,93,30.17,6.0,Calm,Calm,-,N/A,,Overcast,0,2013-01-15 10:55:00
5:55 AM,26.6,26.6,100,30.18,6.0,Calm,Calm,-,N/A,,Overcast,0,2013-01-15 11:55:00
6:15 AM,26.6,26.6,100,30.17,5.0,Calm,Calm,-,N/A,,Overcast,0,2013-01-15 12:15:00
6:35 AM,26.6,26.6,100,30.18,5.0,Calm,Calm,-,N/A,,Overcast,0,2013-01-15 12:35:00
6:55 AM,28.4,26.6,93,30.19,5.0,Calm,Calm,-,N/A,,Overcast,0,2013-01-15 12:55:00
7:15 AM,28.4,26.6,93,30.19,5.0,Calm,Calm,-,N/A,,Overcast,0,2013-01-15 13:15:00
7:55 AM,28.4,26.6,93,30.19,3.0,Calm,Calm,-,N/A,,Overcast,0,2013-01-15 13:55:00
8:15 AM,28.4,26.6,93,30.20,2.5,Calm,Calm,-,N/A,,Overcast,0,2013-01-15 14:15:00
8:35 AM,28.4,26.6,93,30.20,2.5,Calm,Calm,-,N/A,,Overcast,0,2013-01-15 14:35:00
8:55 AM,28.4,26.6,93,30.18,2.5,Calm,Calm,-,N/A,,Overcast,0,2013-01-15 14:55:00
9:15 AM,28.4,26.6,93,30.19,2.5,Calm,Calm,-,N/A,,Overcast,0,2013-01-15 15:15:00
9:35 AM,28.4,26.6,93,30.18,2.5,Calm,Calm,-,N/A,Rain,Freezing Rain,0,2013-01-15 15:35:00
9:55 AM,28.4,26.6,93,30.18,2.5,Calm,Calm,-,N/A,,Overcast,0,2013-01-15 15:55:00
10:15 AM,28.4,28.4,100,30.15,2.5,Calm,Calm,-,N/A,Rain,Freezing Rain,0,2013-01-15 16:15:00
10:35 AM,28.4,28.4,100,30.12,1.8,Calm,Calm,-,N/A,Rain,Freezing Rain,0,2013-01-15 16:35:00
10:55 AM,28.4,28.4,100,30.11,1.5,Calm,Calm,-,0.06,Rain,Freezing Rain,0,2013-01-15 16:55:00
11:15 AM,30.2,28.4,93,30.08,1.8,Calm,Calm,-,0.03,Rain,Freezing Rain,0,2013-01-15 17:15:00
11:55 AM,30.2,28.4,93,30.08,1.8,Calm,Calm,-,0.07,Rain,Freezing Rain,0,2013-01-15 17:55:00
12:35 PM,32.0,28.4,87,30.12,1.0,Calm,Calm,-,0.14,Rain,Rain,0,2013-01-15 18:35:00
12:55 PM,32.0,28.4,87,30.12,2.0,Calm,Calm,-,0.20,Rain,Light Rain,0,2013-01-15 18:55:00
1:15 PM,30.2,28.4,93,30.10,3.0,Calm,Calm,-,N/A,Rain,Freezing Rain,0,2013-01-15 19:15:00
1:55 PM,30.2,28.4,93,30.09,5.0,Calm,Calm,-,0.01,Rain,Freezing Rain,0,2013-01-15 19:55:00
2:15 PM,30.2,28.4,93,30.12,5.0,Calm,Calm,-,N/A,Rain,Freezing Rain,0,2013-01-15 20:15:00
2:55 PM,30.2,28.4,93,30.10,2.5,Calm,Calm,-,0.16,Rain,Freezing Rain,0,2013-01-15 20:55:00
3:15 PM,30.2,28.4,93,30.13,1.8,Calm,Calm,-,0.04,Rain,Freezing Rain,0,2013-01-15 21:15:00
3:35 PM,30.2,28.4,93,30.10,2.5,Calm,Calm,-,0.06,Rain,Freezing Rain,0,2013-01-15 21:35:00
3:55 PM,30.2,28.4,93,30.09,2.5,Calm,Calm,-,0.07,Rain,Freezing Rain,0,2013-01-15 21:55:00
4:15 PM,32.0,28.4,87,30.07,5.0,Calm,Calm,-,N/A,,Overcast,0,2013-01-15 22:15:00
4:55 PM,32.0,28.4,87,30.07,4.0,Calm,Calm,-,N/A,Rain,Light Rain,0,2013-01-15 22:55:00
5:15 PM,32.0,28.4,87,30.09,7.0,Calm,Calm,-,N/A,Rain,Light Rain,0,2013-01-15 23:15:00
5:35 PM,32.0,30.2,93,30.06,5.0,Calm,Calm,-,N/A,Rain,Light Rain,0,2013-01-15 23:35:00
5:55 PM,32.0,30.2,93,30.05,2.5,Calm,Calm,-,0.02,Rain,Light Rain,0,2013-01-15 23:55:00
6:15 PM,32.0,30.2,93,30.09,5.0,Calm,Calm,-,N/A,Rain,Light Rain,0,2013-01-16 00:15:00
6:35 PM,32.0,30.2,93,30.08,6.0,Calm,Calm,-,N/A,,Overcast,0,2013-01-16 00:35:00
6:55 PM,32.0,30.2,93,30.07,7.0,Calm,Calm,-,N/A,Rain,Light Rain,0,2013-01-16 00:55:00
7:15 PM,32.0,30.2,93,30.07,6.0,Calm,Calm,-,N/A,Rain,Light Rain,0,2013-01-16 01:15:00
7:35 PM,32.0,30.2,93,30.10,5.0,Calm,Calm,-,0.01,Rain,Light Rain,0,2013-01-16 01:35:00
7:55 PM,32.0,30.2,93,30.09,7.0,Calm,Calm,-,0.01,Rain,Light Rain,0,2013-01-16 01:55:00
8:15 PM,32.0,30.2,93,30.08,7.0,Calm,Calm,-,N/A,,Overcast,0,2013-01-16 02:15:00
8:35 PM,32.0,28.4,87,30.09,6.0,Calm,Calm,-,N/A,Rain,Light Rain,0,2013-01-16 02:35:00
8:55 PM,32.0,28.4,87,30.09,5.0,Calm,Calm,-,N/A,Rain,Light Rain,0,2013-01-16 02:55:00
9:15 PM,30.2,28.4,93,30.07,5.0,Calm,Calm,-,N/A,Rain,Freezing Rain,0,2013-01-16 03:15:00
9:35 PM,30.2,28.4,93,30.07,5.0,Calm,Calm,-,N/A,,Overcast,0,2013-01-16 03:35:00
9:55 PM,30.2,28.4,93,30.07,4.0,Calm,Calm,-,N/A,,Overcast,0,2013-01-16 03:55:00
10:35 PM,32.0,30.2,93,30.08,3.0,Calm,Calm,-,0.01,Rain,Light Rain,0,2013-01-16 04:35:00
10:55 PM,32.0,30.2,93,30.10,4.0,Calm,Calm,-,0.02,Rain,Light Rain,0,2013-01-16 04:55:00
11:15 PM,32.0,30.2,93,30.09,2.5,Calm,Calm,-,0.03,Rain,Rain,0,2013-01-16 05:15:00
11:35 PM,32.0,30.2,93,30.08,5.0,Calm,Calm,-,0.05,Rain,Light Rain,0,2013-01-16 05:35:00
11:55 PM,30.2,30.2,100,30.09,6.0,Calm,Calm,-,0.05,,Overcast,0,2013-01-16 05:55:00